Météo par heure à Al Jadid

Ce jour, 20 Octobre, Mardi

Heure Température Précipitation Vent Pression Humidité
00:00 +22°C° 0.5 mm 5 m/s 764 mmHg 78%
01:00 +22°C° 0 mm 5 m/s 764 mmHg 77%
02:00 +22°C° 0.4 mm 4 m/s 764 mmHg 78%
03:00 +22°C° 0.4 mm 4 m/s 764 mmHg 79%
04:00 +21°C° 0.4 mm 4 m/s 764 mmHg 80%
05:00 +22°C° 0.3 mm 3 m/s 764 mmHg 77%
06:00 +22°C° 0.3 mm 3 m/s 764 mmHg 75%
07:00 +24°C° 0 mm 3 m/s 765 mmHg 71%
08:00 +25°C° 0 mm 4 m/s 765 mmHg 66%
09:00 +26°C° 0 mm 4 m/s 765 mmHg 62%
10:00 +27°C° 0 mm 5 m/s 765 mmHg 57%
11:00 +27°C° 0 mm 5 m/s 765 mmHg 55%
12:00 +28°C° 0 mm 6 m/s 765 mmHg 54%
13:00 +28°C° 0 mm 6 m/s 764 mmHg 52%
14:00 +27°C° 0 mm 7 m/s 764 mmHg 55%
15:00 +27°C° 0 mm 7 m/s 764 mmHg 57%
16:00 +26°C° 0 mm 8 m/s 763 mmHg 60%
17:00 +24°C° 0 mm 7 m/s 764 mmHg 62%
18:00 +24°C° 0 mm 7 m/s 764 mmHg 63%
19:00 +23°C° 0 mm 6 m/s 765 mmHg 65%
20:00 +22°C° 0 mm 6 m/s 765 mmHg 67%
21:00 +22°C° 0 mm 5 m/s 765 mmHg 68%
22:00 +21°C° 0 mm 5 m/s 765 mmHg 70%
23:00 +21°C° 0 mm 5 m/s 765 mmHg 73%

Demain, 21 Octobre, Mercredi

Heure Température Précipitation Vent Pression Humidité
00:00 +20°C° 0 mm 4 m/s 765 mmHg 75%
01:00 +20°C° 0 mm 4 m/s 765 mmHg 77%
02:00 +19°C° 0 mm 4 m/s 765 mmHg 78%
03:00 +19°C° 0 mm 4 m/s 765 mmHg 78%
04:00 +19°C° 0 mm 4 m/s 765 mmHg 78%
05:00 +19°C° 0 mm 4 m/s 765 mmHg 76%
06:00 +19°C° 0 mm 4 m/s 765 mmHg 74%
07:00 +20°C° 0 mm 3 m/s 765 mmHg 72%
08:00 +21°C° 0 mm 3 m/s 766 mmHg 64%
09:00 +23°C° 0 mm 4 m/s 766 mmHg 56%
10:00 +25°C° 0 mm 4 m/s 766 mmHg 48%
11:00 +26°C° 0 mm 4 m/s 766 mmHg 45%
12:00 +26°C° 0 mm 5 m/s 765 mmHg 43%
13:00 +27°C° 0 mm 5 m/s 765 mmHg 41%
14:00 +26°C° 0 mm 6 m/s 765 mmHg 46%
15:00 +24°C° 0 mm 6 m/s 765 mmHg 50%
16:00 +24°C° 0 mm 7 m/s 764 mmHg 55%
17:00 +23°C° 0 mm 6 m/s 765 mmHg 58%
18:00 +23°C° 0 mm 6 m/s 765 mmHg 62%
19:00 +22°C° 0 mm 6 m/s 766 mmHg 65%
20:00 +22°C° 0 mm 5 m/s 766 mmHg 64%
21:00 +21°C° 0 mm 5 m/s 766 mmHg 63%
22:00 +21°C° 0 mm 5 m/s 766 mmHg 62%
23:00 +20°C° 0 mm 4 m/s 766 mmHg 64%

Après-demain, 22 Octobre, Jeudi

Heure Température Précipitation Vent Pression Humidité
00:00 +20°C° 0 mm 4 m/s 766 mmHg 67%
01:00 +19°C° 0 mm 4 m/s 766 mmHg 69%
02:00 +19°C° 0 mm 3 m/s 766 mmHg 71%
03:00 +18°C° 0 mm 3 m/s 766 mmHg 74%
04:00 +18°C° 0 mm 3 m/s 766 mmHg 76%
05:00 +18°C° 0 mm 3 m/s 766 mmHg 75%
06:00 +18°C° 0 mm 3 m/s 766 mmHg 74%
07:00 +19°C° 0 mm 3 m/s 766 mmHg 73%
08:00 +20°C° 0 mm 3 m/s 767 mmHg 65%
09:00 +22°C° 0 mm 3 m/s 767 mmHg 57%
10:00 +25°C° 0 mm 3 m/s 767 mmHg 49%
11:00 +25°C° 0 mm 3 m/s 766 mmHg 45%
12:00 +26°C° 0 mm 3 m/s 766 mmHg 42%
13:00 +27°C° 0 mm 3 m/s 765 mmHg 38%
14:00 +26°C° 0 mm 4 m/s 765 mmHg 43%
15:00 +26°C° 0 mm 6 m/s 765 mmHg 47%
16:00 +24°C° 0 mm 7 m/s 765 mmHg 51%
17:00 +23°C° 0 mm 7 m/s 765 mmHg 55%
18:00 +23°C° 0 mm 6 m/s 765 mmHg 59%
19:00 +22°C° 0 mm 6 m/s 766 mmHg 63%
20:00 +22°C° 0 mm 6 m/s 766 mmHg 61%
21:00 +21°C° 0 mm 5 m/s 766 mmHg 60%
22:00 +21°C° 0 mm 5 m/s 766 mmHg 59%
23:00 +21°C° 0 mm 4 m/s 766 mmHg 62%

23 Octobre, Vendredi

Heure Température Précipitation Vent Pression Humidité
00:00 +20°C° 0 mm 4 m/s 766 mmHg 64%
01:00 +20°C° 0 mm 4 m/s 766 mmHg 66%
02:00 +19°C° 0 mm 3 m/s 765 mmHg 68%
03:00 +19°C° 0 mm 3 m/s 765 mmHg 69%
04:00 +19°C° 0 mm 3 m/s 765 mmHg 71%
05:00 +20°C° 0 mm 2 m/s 765 mmHg 68%
06:00 +20°C° 0 mm 2 m/s 765 mmHg 65%
07:00 +21°C° 0 mm 2 m/s 765 mmHg 62%
08:00 +22°C° 0 mm 3 m/s 765 mmHg 58%
09:00 +23°C° 0 mm 4 m/s 766 mmHg 54%
10:00 +25°C° 0 mm 5 m/s 766 mmHg 50%
11:00 +26°C° 0.1 mm 6 m/s 765 mmHg 51%
12:00 +26°C° 0.1 mm 6 m/s 764 mmHg 51%
13:00 +26°C° 0.1 mm 7 m/s 764 mmHg 52%
14:00 +26°C° 0.2 mm 7 m/s 764 mmHg 54%
15:00 +24°C° 0.2 mm 8 m/s 764 mmHg 57%
16:00 +24°C° 0.2 mm 8 m/s 764 mmHg 59%
17:00 +23°C° 0 mm 7 m/s 764 mmHg 61%
18:00 +23°C° 0 mm 7 m/s 764 mmHg 63%
19:00 +22°C° 0 mm 6 m/s 764 mmHg 64%
20:00 +22°C° 0 mm 6 m/s 764 mmHg 66%
21:00 +22°C° 0 mm 5 m/s 764 mmHg 68%
22:00 +21°C° 0 mm 5 m/s 765 mmHg 69%
23:00 +21°C° 0 mm 5 m/s 764 mmHg 71%

24 Octobre, Samedi

Heure Température Précipitation Vent Pression Humidité
00:00 +21°C° 0 mm 4 m/s 764 mmHg 73%
01:00 +21°C° 0 mm 4 m/s 764 mmHg 74%
02:00 +20°C° 0 mm 4 m/s 764 mmHg 75%
03:00 +20°C° 0 mm 4 m/s 764 mmHg 75%
04:00 +20°C° 0 mm 4 m/s 764 mmHg 76%
05:00 +20°C° 0 mm 3 m/s 764 mmHg 74%
06:00 +20°C° 0 mm 3 m/s 764 mmHg 73%
07:00 +21°C° 0 mm 3 m/s 764 mmHg 71%
08:00 +22°C° 0 mm 3 m/s 764 mmHg 64%
09:00 +23°C° 0 mm 4 m/s 764 mmHg 58%
10:00 +26°C° 0 mm 4 m/s 765 mmHg 52%
11:00 +26°C° 0 mm 4 m/s 764 mmHg 50%
12:00 +27°C° 0 mm 5 m/s 764 mmHg 49%
13:00 +27°C° 0 mm 6 m/s 763 mmHg 47%
14:00 +26°C° 0 mm 6 m/s 763 mmHg 50%
15:00 +26°C° 0 mm 6 m/s 763 mmHg 53%
16:00 +24°C° 0 mm 6 m/s 763 mmHg 56%
17:00 +24°C° 0 mm 6 m/s 763 mmHg 60%
18:00 +23°C° 0 mm 5 m/s 763 mmHg 64%
19:00 +22°C° 0 mm 4 m/s 764 mmHg 67%
20:00 +22°C° 0 mm 4 m/s 764 mmHg 68%
21:00 +21°C° 0 mm 3 m/s 764 mmHg 69%
22:00 +21°C° 0 mm 3 m/s 764 mmHg 69%
23:00 +20°C° 0 mm 3 m/s 764 mmHg 70%

25 Octobre, Dimanche

Heure Température Précipitation Vent Pression Humidité
00:00 +20°C° 0 mm 3 m/s 764 mmHg 71%
01:00 +20°C° 0 mm 2 m/s 763 mmHg 72%
02:00 +19°C° 0 mm 2 m/s 763 mmHg 74%
03:00 +19°C° 0 mm 2 m/s 763 mmHg 75%
04:00 +18°C° 0 mm 2 m/s 763 mmHg 77%
05:00 +20°C° 0 mm 1 m/s 763 mmHg 75%
06:00 +20°C° 0 mm 1 m/s 763 mmHg 73%
07:00 +20°C° 0 mm 1 m/s 763 mmHg 71%
08:00 +22°C° 0 mm 1 m/s 763 mmHg 66%
09:00 +23°C° 0 mm 1 m/s 763 mmHg 61%
10:00 +24°C° 0 mm 1 m/s 764 mmHg 55%
11:00 +25°C° 0 mm 2 m/s 763 mmHg 52%
12:00 +26°C° 0 mm 2 m/s 763 mmHg 48%
13:00 +27°C° 0 mm 3 m/s 762 mmHg 44%
14:00 +26°C° 0 mm 3 m/s 762 mmHg 46%
15:00 +26°C° 0 mm 3 m/s 761 mmHg 48%
16:00 +25°C° 0 mm 3 m/s 761 mmHg 49%
17:00 +24°C° 0 mm 3 m/s 761 mmHg 53%
18:00 +22°C° 0 mm 3 m/s 761 mmHg 56%
19:00 +21°C° 0 mm 2 m/s 761 mmHg 60%
20:00 +21°C° 0 mm 2 m/s 761 mmHg 62%
21:00 +21°C° 0 mm 1 m/s 762 mmHg 64%
22:00 +21°C° 0 mm 1 m/s 762 mmHg 66%
23:00 +20°C° 0 mm 1 m/s 762 mmHg 67%

26 Octobre, Lundi

Heure Température Précipitation Vent Pression Humidité
00:00 +20°C° 0 mm 1 m/s 761 mmHg 68%
01:00 +19°C° 0 mm 1 m/s 761 mmHg 69%
02:00 +19°C° 0 mm 1 m/s 761 mmHg 70%
03:00 +19°C° 0 mm 1 m/s 761 mmHg 71%
04:00 +19°C° 0 mm 1 m/s 761 mmHg 72%
05:00 +19°C° 0 mm 1 m/s 761 mmHg 69%
06:00 +18°C° 0 mm 0 m/s 762 mmHg 67%
07:00 +19°C° 0 mm 0 m/s 762 mmHg 64%
08:00 +22°C° 0 mm 1 m/s 762 mmHg 59%
09:00 +24°C° 0 mm 1 m/s 762 mmHg 55%
10:00 +25°C° 0 mm 1 m/s 762 mmHg 51%
11:00 +26°C° 0 mm 2 m/s 762 mmHg 49%
12:00 +27°C° 0 mm 3 m/s 761 mmHg 47%
13:00 +28°C° 0 mm 4 m/s 761 mmHg 45%
14:00 +27°C° 0 mm 4 m/s 761 mmHg 50%
15:00 +26°C° 0 mm 4 m/s 761 mmHg 56%
16:00 +26°C° 0 mm 5 m/s 761 mmHg 61%
17:00 +25°C° 0 mm 4 m/s 761 mmHg 66%
18:00 +23°C° 0 mm 4 m/s 761 mmHg 72%
19:00 +22°C° 0 mm 4 m/s 761 mmHg 77%
20:00 +22°C° 0 mm 4 m/s 762 mmHg 77%
21:00 +22°C° 0 mm 4 m/s 762 mmHg 76%
22:00 +22°C° 0 mm 3 m/s 762 mmHg 76%
23:00 +21°C° 0 mm 3 m/s 762 mmHg 75%
Voir plus

Nous avons besoin de votre consentement

Meteoprog et ses fournisseurs de services peuvent stocker et accéder à des données personnelles telles que des cookies, des identifiants d'appareils ou d'autres technologies similaires sur votre appareil et traiter ces données pour personnaliser le contenu et les publicités, ainsi que pour fournir des fonctionnalités de médias sociaux et analyser le trafic.

  • Stocker et/ou accéder à des informations sur votre appareil

    Des cookies, des identifiants d'appareils ou d'autres informations peuvent être stockés ou accessibles sur votre appareil aux fins indiquées ci-dessus.

  • Annonces et contenus personnalisés, mesure des annonces et des contenus, connaissance de l'audience et développement de produits

    Les annonces et le contenu peuvent être personnalisés en fonction d'un profil. D'autres données peuvent être ajoutées pour mieux personnaliser les annonces et le contenu. Les performances des publicités et du contenu peuvent être mesurées. Il est possible d'obtenir des informations sur le public qui a vu les publicités et le contenu. Ces données peuvent être utilisées pour développer ou améliorer l'expérience de l'utilisateur, les systèmes et les logiciels.

En cliquant sur "J'accepte", vous autorisez l'utilisation de cookies, des identifiants d'appareils, des balises web ou d'autres technologies similaires. Vos paramètres peuvent être modifiés dans le navigateur de votre appareil.

Dans certains cas, des intérêts légitimes peuvent être invoqués plutôt qu'un consentement. Vous pouvez en savoir plus à ce sujet dans notre Politique de confidentialité et de cookies.